Year,Month,Day,Hour,Minute,Value (Times are PST for temperature in C)
2019,04,01,00,00,5.50
2019,04,01,00,01,5.50
2019,04,01,00,02,5.50
2019,04,01,00,03,5.50
2019,04,01,00,04,5.50
2019,04,01,00,05,5.50
2019,04,01,00,06,5.50
2019,04,01,00,07,5.50
2019,04,01,00,08,5.50
2019,04,01,00,09,5.50
2019,04,01,00,10,5.40
2019,04,01,00,11,5.40
2019,04,01,00,12,5.40
2019,04,01,00,13,5.40
2019,04,01,00,14,5.30
2019,04,01,00,15,5.30
2019,04,01,00,16,5.20
2019,04,01,00,17,5.20
2019,04,01,00,18,5.10
2019,04,01,00,19,5.10
2019,04,01,00,20,5.00
2019,04,01,00,21,4.90
2019,04,01,00,22,4.90
2019,04,01,00,23,4.80
2019,04,01,00,24,4.80
2019,04,01,00,25,4.80
2019,04,01,00,26,4.80
2019,04,01,00,27,4.80
2019,04,01,00,28,4.80
2019,04,01,00,29,4.80
2019,04,01,00,30,4.90
2019,04,01,00,31,4.90
2019,04,01,00,32,4.90
2019,04,01,00,33,4.90
2019,04,01,00,34,4.90
2019,04,01,00,35,4.90
2019,04,01,00,36,5.00
2019,04,01,00,37,5.00
2019,04,01,00,38,5.00
2019,04,01,00,39,5.00
2019,04,01,00,40,4.90
2019,04,01,00,41,4.90
2019,04,01,00,42,4.90
2019,04,01,00,43,4.90
2019,04,01,00,44,4.90
2019,04,01,00,45,4.90
2019,04,01,00,46,4.90
2019,04,01,00,47,4.90
2019,04,01,00,48,4.90
2019,04,01,00,49,4.80
2019,04,01,00,50,4.80
2019,04,01,00,51,4.80
2019,04,01,00,52,4.80
2019,04,01,00,53,4.80
2019,04,01,00,54,4.80
2019,04,01,00,55,4.80
2019,04,01,00,56,4.80
2019,04,01,00,57,4.80
2019,04,01,00,58,4.80
2019,04,01,00,59,4.70
2019,04,01,01,00,4.70
2019,04,01,01,01,4.70
2019,04,01,01,02,4.60
2019,04,01,01,03,4.60
2019,04,01,01,04,4.60
2019,04,01,01,05,4.60
2019,04,01,01,06,4.50
2019,04,01,01,07,4.50
2019,04,01,01,08,4.40
2019,04,01,01,09,4.40
2019,04,01,01,10,4.30
2019,04,01,01,11,4.30
2019,04,01,01,12,4.30
2019,04,01,01,13,4.20
2019,04,01,01,14,4.20
2019,04,01,01,15,4.20
2019,04,01,01,16,4.10
2019,04,01,01,17,4.10
2019,04,01,01,18,4.10
2019,04,01,01,19,4.10
2019,04,01,01,20,4.00
2019,04,01,01,21,4.00
2019,04,01,01,22,4.00
2019,04,01,01,23,3.90
2019,04,01,01,24,3.90
2019,04,01,01,25,3.90
2019,04,01,01,26,3.90
2019,04,01,01,27,3.90
2019,04,01,01,28,3.80
2019,04,01,01,29,3.80
2019,04,01,01,30,3.80
2019,04,01,01,31,3.80
2019,04,01,01,32,3.80
2019,04,01,01,33,3.80
2019,04,01,01,34,3.70
2019,04,01,01,35,3.70
2019,04,01,01,36,3.70
2019,04,01,01,37,3.70
2019,04,01,01,38,3.70
2019,04,01,01,39,3.70
2019,04,01,01,40,3.70
2019,04,01,01,41,3.70
2019,04,01,01,42,3.70
2019,04,01,01,43,3.70
2019,04,01,01,44,3.80
2019,04,01,01,45,3.80
2019,04,01,01,46,3.80
2019,04,01,01,47,3.80
2019,04,01,01,48,3.80
2019,04,01,01,49,3.70
2019,04,01,01,50,3.70
2019,04,01,01,51,3.70
2019,04,01,01,52,3.70
2019,04,01,01,53,3.70
2019,04,01,01,54,3.80
2019,04,01,01,55,3.80
2019,04,01,01,56,3.80
2019,04,01,01,57,3.80
2019,04,01,01,58,3.70
2019,04,01,01,59,3.70
2019,04,01,02,00,3.70
2019,04,01,02,01,3.60
2019,04,01,02,02,3.60
2019,04,01,02,03,3.50
2019,04,01,02,04,3.50
2019,04,01,02,05,3.40
2019,04,01,02,06,3.40
2019,04,01,02,07,3.30
2019,04,01,02,08,3.30
2019,04,01,02,09,3.30
2019,04,01,02,10,3.30
2019,04,01,02,11,3.30
2019,04,01,02,12,3.30
2019,04,01,02,13,3.30
2019,04,01,02,14,3.30
2019,04,01,02,15,3.30
2019,04,01,02,16,3.30
2019,04,01,02,17,3.30
2019,04,01,02,18,3.30
2019,04,01,02,19,3.30
2019,04,01,02,20,3.30
2019,04,01,02,21,3.30
2019,04,01,02,22,3.30
2019,04,01,02,23,3.30
2019,04,01,02,24,3.30
2019,04,01,02,25,3.40
2019,04,01,02,26,3.30
2019,04,01,02,27,3.30
2019,04,01,02,28,3.30
2019,04,01,02,29,3.30
2019,04,01,02,30,3.30
2019,04,01,02,31,3.30
2019,04,01,02,32,3.30
2019,04,01,02,33,3.20
2019,04,01,02,34,3.20
2019,04,01,02,35,3.20
2019,04,01,02,36,3.20
2019,04,01,02,37,3.10
2019,04,01,02,38,3.10
2019,04,01,02,39,3.10
2019,04,01,02,40,3.20
2019,04,01,02,41,3.20
2019,04,01,02,42,3.20
2019,04,01,02,43,3.20
2019,04,01,02,44,3.30
2019,04,01,02,45,3.30
2019,04,01,02,46,3.30
2019,04,01,02,47,3.40
2019,04,01,02,48,3.40
2019,04,01,02,49,3.40
2019,04,01,02,50,3.40
2019,04,01,02,51,3.40
2019,04,01,02,52,3.40
2019,04,01,02,53,3.40
2019,04,01,02,54,3.40
2019,04,01,02,55,3.40
2019,04,01,02,56,3.40
2019,04,01,02,57,3.40
2019,04,01,02,58,3.40
2019,04,01,02,59,3.40
2019,04,01,03,00,3.30
2019,04,01,03,01,3.30
2019,04,01,03,02,3.30
2019,04,01,03,03,3.20
2019,04,01,03,04,3.20
2019,04,01,03,05,3.20
2019,04,01,03,06,3.10
2019,04,01,03,07,3.10
2019,04,01,03,08,3.10
2019,04,01,03,09,3.10
2019,04,01,03,10,3.00
2019,04,01,03,11,3.00
2019,04,01,03,12,3.00
2019,04,01,03,13,2.90
2019,04,01,03,14,2.90
2019,04,01,03,15,2.90
2019,04,01,03,16,2.90
2019,04,01,03,17,2.90
2019,04,01,03,18,2.90
2019,04,01,03,19,2.90
2019,04,01,03,20,2.90
2019,04,01,03,21,2.90
2019,04,01,03,22,2.80
2019,04,01,03,23,2.80
2019,04,01,03,24,2.80
2019,04,01,03,25,2.80
2019,04,01,03,26,2.80
2019,04,01,03,27,2.80
2019,04,01,03,28,2.80
2019,04,01,03,29,2.80
2019,04,01,03,30,2.80
2019,04,01,03,31,2.80
2019,04,01,03,32,2.80
2019,04,01,03,33,2.70
2019,04,01,03,34,2.70
2019,04,01,03,35,2.70
2019,04,01,03,36,2.60
2019,04,01,03,37,2.60
2019,04,01,03,38,2.60
2019,04,01,03,39,2.50
2019,04,01,03,40,2.50
2019,04,01,03,41,2.50
2019,04,01,03,42,2.50
2019,04,01,03,43,2.40
2019,04,01,03,44,2.40
2019,04,01,03,45,2.40
2019,04,01,03,46,2.40
2019,04,01,03,47,2.40
2019,04,01,03,48,2.30
2019,04,01,03,49,2.30
2019,04,01,03,50,2.30
2019,04,01,03,51,2.40
2019,04,01,03,52,2.30
2019,04,01,03,53,2.30
2019,04,01,03,54,2.30
2019,04,01,03,55,2.40
2019,04,01,03,56,2.40
2019,04,01,03,57,2.40
2019,04,01,03,58,2.40
2019,04,01,03,59,2.40
2019,04,01,04,00,2.40
2019,04,01,04,01,2.40
2019,04,01,04,02,2.40
2019,04,01,04,03,2.40
2019,04,01,04,04,2.40
2019,04,01,04,05,2.50
2019,04,01,04,06,2.50
2019,04,01,04,07,2.50
2019,04,01,04,08,2.60
2019,04,01,04,09,2.60
2019,04,01,04,10,2.60
2019,04,01,04,11,2.60
2019,04,01,04,12,2.60
2019,04,01,04,13,2.60
2019,04,01,04,14,2.60
2019,04,01,04,15,2.60
2019,04,01,04,16,2.50
2019,04,01,04,17,2.50
2019,04,01,04,18,2.50
2019,04,01,04,19,2.50
2019,04,01,04,20,2.50
2019,04,01,04,21,2.50
2019,04,01,04,22,2.50
2019,04,01,04,23,2.50
2019,04,01,04,24,2.50
2019,04,01,04,25,2.50
2019,04,01,04,26,2.50
2019,04,01,04,27,2.50
2019,04,01,04,28,2.50
2019,04,01,04,29,2.50
2019,04,01,04,30,2.50
2019,04,01,04,31,2.50
2019,04,01,04,32,2.50
2019,04,01,04,33,2.50
2019,04,01,04,34,2.50
2019,04,01,04,35,2.50
2019,04,01,04,36,2.50
2019,04,01,04,37,2.50
2019,04,01,04,38,2.50
2019,04,01,04,39,2.50
2019,04,01,04,40,2.50
2019,04,01,04,41,2.50
2019,04,01,04,42,2.50
2019,04,01,04,43,2.50
2019,04,01,04,44,2.50
2019,04,01,04,45,2.40
2019,04,01,04,46,2.40
2019,04,01,04,47,2.40
2019,04,01,04,48,2.40
2019,04,01,04,49,2.40
2019,04,01,04,50,2.40
2019,04,01,04,51,2.40
2019,04,01,04,52,2.40
2019,04,01,04,53,2.30
2019,04,01,04,54,2.30
2019,04,01,04,55,2.30
2019,04,01,04,56,2.30
2019,04,01,04,57,2.30
2019,04,01,04,58,2.30
2019,04,01,04,59,2.30
2019,04,01,05,00,2.30
2019,04,01,05,01,2.20
2019,04,01,05,02,2.20
2019,04,01,05,03,2.20
2019,04,01,05,04,2.20
2019,04,01,05,05,2.20
2019,04,01,05,06,2.20
2019,04,01,05,07,2.10
2019,04,01,05,08,2.10
2019,04,01,05,09,2.10
2019,04,01,05,10,2.10
2019,04,01,05,11,2.10
2019,04,01,05,12,2.10
2019,04,01,05,13,2.10
2019,04,01,05,14,2.10
2019,04,01,05,15,2.10
2019,04,01,05,16,2.10
2019,04,01,05,17,2.10
2019,04,01,05,18,2.00
2019,04,01,05,19,2.00
2019,04,01,05,20,2.00
2019,04,01,05,21,1.90
2019,04,01,05,22,1.90
2019,04,01,05,23,1.90
2019,04,01,05,24,1.90
2019,04,01,05,25,1.90
2019,04,01,05,26,1.90
2019,04,01,05,27,1.80
2019,04,01,05,28,1.80
2019,04,01,05,29,1.80
2019,04,01,05,30,1.80
2019,04,01,05,31,1.80
2019,04,01,05,32,1.70
2019,04,01,05,33,1.70
2019,04,01,05,34,1.70
2019,04,01,05,35,1.70
2019,04,01,05,36,1.70
2019,04,01,05,37,1.70
2019,04,01,05,38,1.70
2019,04,01,05,39,1.70
2019,04,01,05,40,1.70
2019,04,01,05,41,1.60
2019,04,01,05,42,1.60
2019,04,01,05,43,1.60
2019,04,01,05,44,1.60
2019,04,01,05,45,1.60
2019,04,01,05,46,1.60
2019,04,01,05,47,1.60
2019,04,01,05,48,1.50
2019,04,01,05,49,1.50
2019,04,01,05,50,1.50
2019,04,01,05,51,1.50
2019,04,01,05,52,1.50
2019,04,01,05,53,1.60
2019,04,01,05,54,1.60
2019,04,01,05,55,1.60
2019,04,01,05,56,1.60
2019,04,01,05,57,1.60
2019,04,01,05,58,1.60
2019,04,01,05,59,1.70
2019,04,01,06,00,1.70
2019,04,01,06,01,1.70
2019,04,01,06,02,1.70
2019,04,01,06,03,1.70
2019,04,01,06,04,1.70
2019,04,01,06,05,1.70
2019,04,01,06,06,1.70
2019,04,01,06,07,1.70
2019,04,01,06,08,1.70
2019,04,01,06,09,1.70
2019,04,01,06,10,1.70
2019,04,01,06,11,1.70
2019,04,01,06,12,1.60
2019,04,01,06,13,1.60
2019,04,01,06,14,1.60
2019,04,01,06,15,1.60
2019,04,01,06,16,1.60
2019,04,01,06,17,1.60
2019,04,01,06,18,1.60
2019,04,01,06,19,1.60
2019,04,01,06,20,1.60
2019,04,01,06,21,1.60
2019,04,01,06,22,1.60
2019,04,01,06,23,1.60
2019,04,01,06,24,1.60
2019,04,01,06,25,1.60
2019,04,01,06,26,1.60
2019,04,01,06,27,1.50
2019,04,01,06,28,1.50
2019,04,01,06,29,1.50
2019,04,01,06,30,1.40
2019,04,01,06,31,1.40
2019,04,01,06,32,1.40
2019,04,01,06,33,1.40
2019,04,01,06,34,1.40
2019,04,01,06,35,1.30
2019,04,01,06,36,1.30
2019,04,01,06,37,1.30
2019,04,01,06,38,1.30
2019,04,01,06,39,1.30
2019,04,01,06,40,1.30
2019,04,01,06,41,1.30
2019,04,01,06,42,1.30
2019,04,01,06,43,1.40
2019,04,01,06,44,1.30
2019,04,01,06,45,1.30
2019,04,01,06,46,1.30
2019,04,01,06,47,1.30
2019,04,01,06,48,1.30
2019,04,01,06,49,1.30
2019,04,01,06,50,1.30
2019,04,01,06,51,1.30
2019,04,01,06,52,1.30
2019,04,01,06,53,1.30
2019,04,01,06,54,1.30
2019,04,01,06,55,1.30
2019,04,01,06,56,1.30
2019,04,01,06,57,1.20
2019,04,01,06,58,1.20
2019,04,01,06,59,1.20
2019,04,01,07,00,1.20
2019,04,01,07,01,1.20
2019,04,01,07,02,1.20
2019,04,01,07,03,1.20
2019,04,01,07,04,1.20
2019,04,01,07,05,1.20
2019,04,01,07,06,1.20
2019,04,01,07,07,1.20
2019,04,01,07,08,1.20
2019,04,01,07,09,1.10
2019,04,01,07,10,1.10
2019,04,01,07,11,1.10
2019,04,01,07,12,1.10
2019,04,01,07,13,1.10
2019,04,01,07,14,1.00
2019,04,01,07,15,1.00
2019,04,01,07,16,1.00
2019,04,01,07,17,1.00
2019,04,01,07,18,1.10
2019,04,01,07,19,1.10
2019,04,01,07,20,1.10
2019,04,01,07,21,1.10
2019,04,01,07,22,1.10
2019,04,01,07,23,1.10
2019,04,01,07,24,1.10
2019,04,01,07,25,1.10
2019,04,01,07,26,1.00
2019,04,01,07,27,1.00
2019,04,01,07,28,1.00
2019,04,01,07,29,1.00
2019,04,01,07,30,1.00
2019,04,01,07,31,1.00
2019,04,01,07,32,1.00
2019,04,01,07,33,1.00
2019,04,01,07,34,1.00
2019,04,01,07,35,1.00
2019,04,01,07,36,1.00
2019,04,01,07,37,1.00
2019,04,01,07,38,1.00
2019,04,01,07,39,1.00
2019,04,01,07,40,1.00
2019,04,01,07,41,1.00
2019,04,01,07,42,1.00
2019,04,01,07,43,1.00
2019,04,01,07,44,1.00
2019,04,01,07,45,1.00
2019,04,01,07,46,1.00
2019,04,01,07,47,1.00
2019,04,01,07,48,1.00
2019,04,01,07,49,1.00
2019,04,01,07,50,1.10
2019,04,01,07,51,1.10
2019,04,01,07,52,1.10
2019,04,01,07,53,1.00
2019,04,01,07,54,1.00
2019,04,01,07,55,1.00
2019,04,01,07,56,1.00
2019,04,01,07,57,1.00
2019,04,01,07,58,1.00
2019,04,01,07,59,1.00
2019,04,01,08,00,1.00
2019,04,01,08,01,1.00
2019,04,01,08,02,1.00
2019,04,01,08,03,1.00
2019,04,01,08,04,1.00
2019,04,01,08,05,1.00
2019,04,01,08,06,1.00
2019,04,01,08,07,1.00
2019,04,01,08,08,1.00
2019,04,01,08,09,1.00
2019,04,01,08,10,1.00
2019,04,01,08,11,1.00
2019,04,01,08,12,1.00
2019,04,01,08,13,1.10
2019,04,01,08,14,1.10
2019,04,01,08,15,1.10
2019,04,01,08,16,1.20
2019,04,01,08,17,1.20
2019,04,01,08,18,1.30
2019,04,01,08,19,1.30
2019,04,01,08,20,1.40
2019,04,01,08,21,1.40
2019,04,01,08,22,1.50
2019,04,01,08,23,1.60
2019,04,01,08,24,1.60
2019,04,01,08,25,1.70
2019,04,01,08,26,1.80
2019,04,01,08,27,1.80
2019,04,01,08,28,1.90
2019,04,01,08,29,1.90
2019,04,01,08,30,2.00
2019,04,01,08,31,2.10
2019,04,01,08,32,2.10
2019,04,01,08,33,2.20
2019,04,01,08,34,2.20
2019,04,01,08,35,2.30
2019,04,01,08,36,2.30
2019,04,01,08,37,2.30
2019,04,01,08,38,2.30
2019,04,01,08,39,2.30
2019,04,01,08,40,2.40
2019,04,01,08,41,2.40
2019,04,01,08,42,2.50
2019,04,01,08,43,2.50
2019,04,01,08,44,2.60
2019,04,01,08,45,2.60
2019,04,01,08,46,2.50
2019,04,01,08,47,2.50
2019,04,01,08,48,2.50
2019,04,01,08,49,2.50
2019,04,01,08,50,2.60
2019,04,01,08,51,2.60
2019,04,01,08,52,2.70
2019,04,01,08,53,2.70
2019,04,01,08,54,2.80
2019,04,01,08,55,2.90
2019,04,01,08,56,3.00
2019,04,01,08,57,3.00
2019,04,01,08,58,3.10
2019,04,01,08,59,3.20
2019,04,01,09,00,3.20
2019,04,01,09,01,3.30
2019,04,01,09,02,3.40
2019,04,01,09,03,3.40
2019,04,01,09,04,3.40
2019,04,01,09,05,3.50
2019,04,01,09,06,3.50
2019,04,01,09,07,3.50
2019,04,01,09,08,3.60
2019,04,01,09,09,3.60
2019,04,01,09,10,3.70
2019,04,01,09,11,3.70
2019,04,01,09,12,3.80
2019,04,01,09,13,3.90
2019,04,01,09,14,3.90
2019,04,01,09,15,4.00
2019,04,01,09,16,4.10
2019,04,01,09,17,4.10
2019,04,01,09,18,4.10
2019,04,01,09,19,4.10
2019,04,01,09,20,4.10
2019,04,01,09,21,4.20
2019,04,01,09,22,4.20
2019,04,01,09,23,4.30
2019,04,01,09,24,4.40
2019,04,01,09,25,4.40
2019,04,01,09,26,4.50
2019,04,01,09,27,4.60
2019,04,01,09,28,4.60
2019,04,01,09,29,4.70
2019,04,01,09,30,4.70
2019,04,01,09,31,4.70
2019,04,01,09,32,4.80
2019,04,01,09,33,4.90
2019,04,01,09,34,5.00
2019,04,01,09,35,5.00
2019,04,01,09,36,5.10
2019,04,01,09,37,5.20
2019,04,01,09,38,5.30
2019,04,01,09,39,5.30
2019,04,01,09,40,5.40
2019,04,01,09,41,5.50
2019,04,01,09,42,5.50
2019,04,01,09,43,5.60
2019,04,01,09,44,5.60
2019,04,01,09,45,5.70
2019,04,01,09,46,5.70
2019,04,01,09,47,5.80
2019,04,01,09,48,5.80
2019,04,01,09,49,5.90
2019,04,01,09,50,5.90
2019,04,01,09,51,6.00
2019,04,01,09,52,6.00
2019,04,01,09,53,6.10
2019,04,01,09,54,6.20
2019,04,01,09,55,6.20
2019,04,01,09,56,6.30
2019,04,01,09,57,6.30
2019,04,01,09,58,6.40
2019,04,01,09,59,6.50
2019,04,01,10,00,6.50
2019,04,01,10,01,6.60
2019,04,01,10,02,6.70
2019,04,01,10,03,6.80
2019,04,01,10,04,6.80
2019,04,01,10,05,7.00
2019,04,01,10,06,7.10
2019,04,01,10,07,7.20
2019,04,01,10,08,7.30
2019,04,01,10,09,7.40
2019,04,01,10,10,7.50
2019,04,01,10,11,7.60
2019,04,01,10,12,7.70
2019,04,01,10,13,7.90
2019,04,01,10,14,8.00
2019,04,01,10,15,8.20
2019,04,01,10,16,8.30
2019,04,01,10,17,8.40
2019,04,01,10,18,8.50
2019,04,01,10,19,8.50
2019,04,01,10,20,8.60
2019,04,01,10,21,8.70
2019,04,01,10,22,8.80
2019,04,01,10,23,8.90
2019,04,01,10,24,8.90
2019,04,01,10,25,9.00
2019,04,01,10,26,9.10
2019,04,01,10,27,9.20
2019,04,01,10,28,9.20
2019,04,01,10,29,9.30
2019,04,01,10,30,9.30
2019,04,01,10,31,9.40
2019,04,01,10,32,9.40
2019,04,01,10,33,9.50
2019,04,01,10,34,9.60
2019,04,01,10,35,9.70
2019,04,01,10,36,9.80
2019,04,01,10,37,9.90
2019,04,01,10,38,10.00
2019,04,01,10,39,10.00
2019,04,01,10,40,10.10
2019,04,01,10,41,10.10
2019,04,01,10,42,10.20
2019,04,01,10,43,10.30
2019,04,01,10,44,10.30
2019,04,01,10,45,10.40
2019,04,01,10,46,10.50
2019,04,01,10,47,10.60
2019,04,01,10,48,10.70
2019,04,01,10,49,10.80
2019,04,01,10,50,10.80
2019,04,01,10,51,10.90
2019,04,01,10,52,10.90
2019,04,01,10,53,10.90
2019,04,01,10,54,10.90
2019,04,01,10,55,10.90
2019,04,01,10,56,11.00
2019,04,01,10,57,11.10
2019,04,01,10,58,11.10
2019,04,01,10,59,11.20
2019,04,01,11,00,11.40
2019,04,01,11,01,11.50
2019,04,01,11,02,11.60
2019,04,01,11,03,11.70
2019,04,01,11,04,11.70
2019,04,01,11,05,11.60
2019,04,01,11,06,11.60
2019,04,01,11,07,11.60
2019,04,01,11,08,11.70
2019,04,01,11,09,11.70
2019,04,01,11,10,11.70
2019,04,01,11,11,11.80
2019,04,01,11,12,11.80
2019,04,01,11,13,11.80
2019,04,01,11,14,11.80
2019,04,01,11,15,11.80
2019,04,01,11,16,11.70
2019,04,01,11,17,11.70
2019,04,01,11,18,11.70
2019,04,01,11,19,11.70
2019,04,01,11,20,11.70
2019,04,01,11,21,11.80
2019,04,01,11,22,11.70
2019,04,01,11,23,11.70
2019,04,01,11,24,11.70
2019,04,01,11,25,11.70
2019,04,01,11,26,11.70
2019,04,01,11,27,11.70
2019,04,01,11,28,11.80
2019,04,01,11,29,11.80
2019,04,01,11,30,11.90
2019,04,01,11,31,11.90
2019,04,01,11,32,11.90
2019,04,01,11,33,11.90
2019,04,01,11,34,11.90
2019,04,01,11,35,11.80
2019,04,01,11,36,11.70
2019,04,01,11,37,11.60
2019,04,01,11,38,11.50
2019,04,01,11,39,11.40
2019,04,01,11,40,11.40
2019,04,01,11,41,11.30
2019,04,01,11,42,11.20
2019,04,01,11,43,11.10
2019,04,01,11,44,11.00
2019,04,01,11,45,11.00
2019,04,01,11,46,11.00
2019,04,01,11,47,10.90
2019,04,01,11,48,10.90
2019,04,01,11,49,10.90
2019,04,01,11,50,11.00
2019,04,01,11,51,11.00
2019,04,01,11,52,11.00
2019,04,01,11,53,11.00
2019,04,01,11,54,11.10
2019,04,01,11,55,11.20
2019,04,01,11,56,11.20
2019,04,01,11,57,11.30
2019,04,01,11,58,11.30
2019,04,01,11,59,11.30
2019,04,01,12,00,11.30
2019,04,01,12,01,11.30
2019,04,01,12,02,11.40
2019,04,01,12,03,11.40
2019,04,01,12,04,11.40
2019,04,01,12,05,11.30
2019,04,01,12,06,11.30
2019,04,01,12,07,11.30
2019,04,01,12,08,11.30
2019,04,01,12,09,11.40
2019,04,01,12,10,11.40
2019,04,01,12,11,11.40
2019,04,01,12,12,11.50
2019,04,01,12,13,11.60
2019,04,01,12,14,11.60
2019,04,01,12,15,11.70
2019,04,01,12,16,11.80
2019,04,01,12,17,11.90
2019,04,01,12,18,12.00
2019,04,01,12,19,12.10
2019,04,01,12,20,12.20
2019,04,01,12,21,12.30
2019,04,01,12,22,12.40
2019,04,01,12,23,12.40
2019,04,01,12,24,12.50
2019,04,01,12,25,12.60
2019,04,01,12,26,12.70
2019,04,01,12,27,12.80
2019,04,01,12,28,12.90
2019,04,01,12,29,13.00
2019,04,01,12,30,13.10
2019,04,01,12,31,13.10
2019,04,01,12,32,13.10
2019,04,01,12,33,13.20
2019,04,01,12,34,13.20
2019,04,01,12,35,13.30
2019,04,01,12,36,13.30
2019,04,01,12,37,13.40
2019,04,01,12,38,13.40
2019,04,01,12,39,13.50
2019,04,01,12,40,13.50
2019,04,01,12,41,13.50
2019,04,01,12,42,13.60
2019,04,01,12,43,13.70
2019,04,01,12,44,13.70
2019,04,01,12,45,13.70
2019,04,01,12,46,13.70
2019,04,01,12,47,13.70
2019,04,01,12,48,13.70
2019,04,01,12,49,13.70
2019,04,01,12,50,13.80
2019,04,01,12,51,13.80
2019,04,01,12,52,13.80
2019,04,01,12,53,13.90
2019,04,01,12,54,13.90
2019,04,01,12,55,13.90
2019,04,01,12,56,14.00
2019,04,01,12,57,14.10
2019,04,01,12,58,14.20
2019,04,01,12,59,14.20
2019,04,01,13,00,14.30
2019,04,01,13,01,14.30
2019,04,01,13,02,14.30
2019,04,01,13,03,14.40
2019,04,01,13,04,14.40
2019,04,01,13,05,14.40
2019,04,01,13,06,14.40
2019,04,01,13,07,14.40
2019,04,01,13,08,14.40
2019,04,01,13,09,14.30
2019,04,01,13,10,14.30
2019,04,01,13,11,14.30
2019,04,01,13,12,14.30
2019,04,01,13,13,14.40
2019,04,01,13,14,14.40
2019,04,01,13,15,14.50
2019,04,01,13,16,14.60
2019,04,01,13,17,14.60
2019,04,01,13,18,14.60
2019,04,01,13,19,14.60
2019,04,01,13,20,14.60
2019,04,01,13,21,14.50
2019,04,01,13,22,14.50
2019,04,01,13,23,14.60
2019,04,01,13,24,14.60
2019,04,01,13,25,14.70
2019,04,01,13,26,14.70
2019,04,01,13,27,14.70
2019,04,01,13,28,14.80
2019,04,01,13,29,14.80
2019,04,01,13,30,14.80
2019,04,01,13,31,14.80
2019,04,01,13,32,14.90
2019,04,01,13,33,14.90
2019,04,01,13,34,15.00
2019,04,01,13,35,15.00
2019,04,01,13,36,15.10
2019,04,01,13,37,15.10
2019,04,01,13,38,15.10
2019,04,01,13,39,15.20
2019,04,01,13,40,15.30
2019,04,01,13,41,15.40
2019,04,01,13,42,15.50
2019,04,01,13,43,15.50
2019,04,01,13,44,15.50
2019,04,01,13,45,15.60
2019,04,01,13,46,15.60
2019,04,01,13,47,15.70
2019,04,01,13,48,15.70
2019,04,01,13,49,15.80
2019,04,01,13,50,15.80
2019,04,01,13,51,15.80
2019,04,01,13,52,15.80
2019,04,01,13,53,15.80
2019,04,01,13,54,15.90
2019,04,01,13,55,15.90
2019,04,01,13,56,15.90
2019,04,01,13,57,15.90
2019,04,01,13,58,15.80
2019,04,01,13,59,15.80
2019,04,01,14,00,15.80
2019,04,01,14,01,15.80
2019,04,01,14,02,15.80
2019,04,01,14,03,15.90
2019,04,01,14,04,15.90
2019,04,01,14,05,15.90
2019,04,01,14,06,15.90
2019,04,01,14,07,16.00
2019,04,01,14,08,16.10
2019,04,01,14,09,16.10
2019,04,01,14,10,16.20
2019,04,01,14,11,16.20
2019,04,01,14,12,16.20
2019,04,01,14,13,16.20
2019,04,01,14,14,16.20
2019,04,01,14,15,16.20
2019,04,01,14,16,16.20
2019,04,01,14,17,16.20
2019,04,01,14,18,16.30
2019,04,01,14,19,16.30
2019,04,01,14,20,16.30
2019,04,01,14,21,16.30
2019,04,01,14,22,16.40
2019,04,01,14,23,16.40
2019,04,01,14,24,16.50
2019,04,01,14,25,16.60
2019,04,01,14,26,16.70
2019,04,01,14,27,16.70
2019,04,01,14,28,16.80
2019,04,01,14,29,16.90
2019,04,01,14,30,16.90
2019,04,01,14,31,17.00
2019,04,01,14,32,17.10
2019,04,01,14,33,17.10
2019,04,01,14,34,17.00
2019,04,01,14,35,17.00
2019,04,01,14,36,16.90
2019,04,01,14,37,16.80
2019,04,01,14,38,16.70
2019,04,01,14,39,16.70
2019,04,01,14,40,16.70
2019,04,01,14,41,16.70
2019,04,01,14,42,16.70
2019,04,01,14,43,16.80
2019,04,01,14,44,16.90
2019,04,01,14,45,17.00
2019,04,01,14,46,17.00
2019,04,01,14,47,17.10
2019,04,01,14,48,17.10
2019,04,01,14,49,17.10
2019,04,01,14,50,17.10
2019,04,01,14,51,17.20
2019,04,01,14,52,17.20
2019,04,01,14,53,17.30
2019,04,01,14,54,17.40
2019,04,01,14,55,17.50
2019,04,01,14,56,17.60
2019,04,01,14,57,17.70
2019,04,01,14,58,17.80
2019,04,01,14,59,17.80
2019,04,01,15,00,17.90
2019,04,01,15,01,17.90
2019,04,01,15,02,18.00
2019,04,01,15,03,18.00
2019,04,01,15,04,18.10
2019,04,01,15,05,18.10
2019,04,01,15,06,18.20
2019,04,01,15,07,18.20
2019,04,01,15,08,18.20
2019,04,01,15,09,18.20
2019,04,01,15,10,18.20
2019,04,01,15,11,18.20
2019,04,01,15,12,18.20
2019,04,01,15,13,18.20
2019,04,01,15,14,18.20
2019,04,01,15,15,18.20
2019,04,01,15,16,18.20
2019,04,01,15,17,18.20
2019,04,01,15,18,18.30
2019,04,01,15,19,18.40
2019,04,01,15,20,18.50
2019,04,01,15,21,18.60
2019,04,01,15,22,18.70
2019,04,01,15,23,18.70
2019,04,01,15,24,18.80
2019,04,01,15,25,18.80
2019,04,01,15,26,18.90
2019,04,01,15,27,18.90
2019,04,01,15,28,18.90
2019,04,01,15,29,19.00
2019,04,01,15,30,19.10
2019,04,01,15,31,19.20
2019,04,01,15,32,19.20
2019,04,01,15,33,19.30
2019,04,01,15,34,19.40
2019,04,01,15,35,19.40
2019,04,01,15,36,19.40
2019,04,01,15,37,19.40
2019,04,01,15,38,19.40
2019,04,01,15,39,19.30
2019,04,01,15,40,19.30
2019,04,01,15,41,19.30
2019,04,01,15,42,19.30
2019,04,01,15,43,19.40
2019,04,01,15,44,19.40
2019,04,01,15,45,19.50
2019,04,01,15,46,19.60
2019,04,01,15,47,19.60
2019,04,01,15,48,19.60
2019,04,01,15,49,19.70
2019,04,01,15,50,19.70
2019,04,01,15,51,19.70
2019,04,01,15,52,19.70
2019,04,01,15,53,19.70
2019,04,01,15,54,19.60
2019,04,01,15,55,19.40
2019,04,01,15,56,19.20
2019,04,01,15,57,19.10
2019,04,01,15,58,19.00
2019,04,01,15,59,18.90
2019,04,01,16,00,18.80
2019,04,01,16,01,18.70
2019,04,01,16,02,18.70
2019,04,01,16,03,18.70
2019,04,01,16,04,18.60
2019,04,01,16,05,18.60
2019,04,01,16,06,18.50
2019,04,01,16,07,18.40
2019,04,01,16,08,18.30
2019,04,01,16,09,18.30
2019,04,01,16,10,18.30
2019,04,01,16,11,18.30
2019,04,01,16,12,18.40
2019,04,01,16,13,18.40
2019,04,01,16,14,18.50
2019,04,01,16,15,18.40
2019,04,01,16,16,18.40
2019,04,01,16,17,18.40
2019,04,01,16,18,18.50
2019,04,01,16,19,18.60
2019,04,01,16,20,18.70
2019,04,01,16,21,18.80
2019,04,01,16,22,19.00
2019,04,01,16,23,19.10
2019,04,01,16,24,19.20
2019,04,01,16,25,19.30
2019,04,01,16,26,19.30
2019,04,01,16,27,19.40
2019,04,01,16,28,19.40
2019,04,01,16,29,19.50
2019,04,01,16,30,19.60
2019,04,01,16,31,19.70
2019,04,01,16,32,19.70
2019,04,01,16,33,19.70
2019,04,01,16,34,19.70
2019,04,01,16,35,19.70
2019,04,01,16,36,19.70
2019,04,01,16,37,19.70
2019,04,01,16,38,19.80
2019,04,01,16,39,19.80
2019,04,01,16,40,19.80
2019,04,01,16,41,19.80
2019,04,01,16,42,19.80
2019,04,01,16,43,19.80
2019,04,01,16,44,19.80
2019,04,01,16,45,19.80
2019,04,01,16,46,19.80
2019,04,01,16,47,19.70
2019,04,01,16,48,19.70
2019,04,01,16,49,19.60
2019,04,01,16,50,19.50
2019,04,01,16,51,19.40
2019,04,01,16,52,19.30
2019,04,01,16,53,19.30
2019,04,01,16,54,19.30
2019,04,01,16,55,19.30
2019,04,01,16,56,19.30
2019,04,01,16,57,19.30
2019,04,01,16,58,19.20
2019,04,01,16,59,19.20
2019,04,01,17,00,19.20
2019,04,01,17,01,19.10
2019,04,01,17,02,19.10
2019,04,01,17,03,19.00
2019,04,01,17,04,18.90
2019,04,01,17,05,18.90
2019,04,01,17,06,18.90
2019,04,01,17,07,18.80
2019,04,01,17,08,18.70
2019,04,01,17,09,18.60
2019,04,01,17,10,18.50
2019,04,01,17,11,18.40
2019,04,01,17,12,18.30
2019,04,01,17,13,18.30
2019,04,01,17,14,18.30
2019,04,01,17,15,18.30
2019,04,01,17,16,18.30
2019,04,01,17,17,18.30
2019,04,01,17,18,18.30
2019,04,01,17,19,18.40
2019,04,01,17,20,18.40
2019,04,01,17,21,18.40
2019,04,01,17,22,18.30
2019,04,01,17,23,18.20
2019,04,01,17,24,18.10
2019,04,01,17,25,18.10
2019,04,01,17,26,18.00
2019,04,01,17,27,17.80
2019,04,01,17,28,17.70
2019,04,01,17,29,17.60
2019,04,01,17,30,17.40
2019,04,01,17,31,17.40
2019,04,01,17,32,17.30
2019,04,01,17,33,17.30
2019,04,01,17,34,17.30
2019,04,01,17,35,17.40
2019,04,01,17,36,17.30
2019,04,01,17,37,17.20
2019,04,01,17,38,16.90
2019,04,01,17,39,16.80
2019,04,01,17,40,16.70
2019,04,01,17,41,16.60
2019,04,01,17,42,16.60
2019,04,01,17,43,16.60
2019,04,01,17,44,16.50
2019,04,01,17,45,16.40
2019,04,01,17,46,16.30
2019,04,01,17,47,16.30